{"data":{"norad_id":68587,"epoch":"2026-05-25T02:48:53.106912Z","epoch_age_seconds":64297,"freshness":"FRESH","line1":"1 68587U 26072Q   26145.11728133  .00031377  00000+0  81987-3 0  9991","line2":"2 68587  51.8730 288.3137 0004316 280.4929  79.5572 15.38493093  7838","mean_motion":15.38493093,"eccentricity":0.0004316,"inclination_deg":51.873,"raan_deg":288.3137,"arg_perigee_deg":280.4929,"mean_anomaly_deg":79.5572,"bstar":0.00081987,"rev_number":783,"period_min":93.598080261255,"perigee_km":447.61741712134,"apogee_km":453.51195241563,"semimajor_km":6828.7016847685,"source":"CELESTRAK","updated_at":"2026-05-25T13:38:07.951206Z"}}